This is the latest recevied weather packets stored in our database for station/object KQ4EHY-1. If no packets are shown the sender has not sent any weather packets the latest 10 day(s).
| Time | Temp. | Humidity | Pressure | Rain* | Wind** | Luminosity | Snow |
|---|---|---|---|---|---|---|---|
| 1788549669 | 36.67° C | 50% | 1011 hPa | 0 mm | 1.34 m/s, 304° | - | - |
| 1788549609 | 36.11° C | 48% | 1011.3 hPa | 0 mm | 0.45 m/s, 272° | - | - |
| 1788549549 | 36.11° C | 48% | 1011.3 hPa | 0 mm | 0.45 m/s, 272° | - | - |
| 1788549489 | 36.11° C | 48% | 1011.3 hPa | 0 mm | 0.45 m/s, 272° | - | - |
| 1788549429 | 36.11° C | 48% | 1011.3 hPa | 0 mm | 0.45 m/s, 272° | - | - |
| 1788549369 | 36.11° C | 48% | 1011.3 hPa | 0 mm | 0.45 m/s, 272° | - | - |
| 1788549309 | 36.67° C | 49% | 1011.4 hPa | 0 mm | 0.89 m/s, 285° | - | - |
| 1788549249 | 36.67° C | 49% | 1011.4 hPa | 0 mm | 0.89 m/s, 285° | - | - |
| 1788549189 | 36.67° C | 49% | 1011.4 hPa | 0 mm | 0.89 m/s, 285° | - | - |
| 1788549129 | 36.67° C | 49% | 1011.4 hPa | 0 mm | 0.89 m/s, 285° | - | - |
| 1788549069 | 36.67° C | 49% | 1011.4 hPa | 0 mm | 0.89 m/s, 285° | - | - |
| 1788549009 | 36.11° C | 53% | 1011.4 hPa | 0 mm | 0.45 m/s, 348° | - | - |
| 1788548949 | 36.11° C | 53% | 1011.4 hPa | 0 mm | 0.45 m/s, 348° | - | - |
| 1788548890 | 36.11° C | 53% | 1011.4 hPa | 0 mm | 0.45 m/s, 348° | - | - |
| 1788548829 | 36.11° C | 53% | 1011.4 hPa | 0 mm | 0.45 m/s, 348° | - | - |
| 1788548769 | 36.11° C | 53% | 1011.4 hPa | 0 mm | 0.45 m/s, 348° | - | - |
| 1788548709 | 36.11° C | 49% | 1011.3 hPa | 0 mm | 0.89 m/s, 310° | - | - |
| 1788548649 | 36.11° C | 49% | 1011.3 hPa | 0 mm | 0.89 m/s, 310° | - | - |
| 1788548589 | 36.11° C | 49% | 1011.3 hPa | 0 mm | 0.89 m/s, 310° | - | - |
| 1788548529 | 36.11° C | 49% | 1011.3 hPa | 0 mm | 0.89 m/s, 310° | - | - |
| 1788548469 | 36.11° C | 49% | 1011.3 hPa | 0 mm | 0.89 m/s, 310° | - | - |
| 1788548409 | 36.11° C | 52% | 1011.6 hPa | 0 mm | 0.45 m/s, 301° | - | - |
| 1788548349 | 36.11° C | 52% | 1011.6 hPa | 0 mm | 0.45 m/s, 301° | - | - |
| 1788548289 | 36.11° C | 52% | 1011.6 hPa | 0 mm | 0.45 m/s, 301° | - | - |
| 1788548229 | 36.11° C | 52% | 1011.6 hPa | 0 mm | 0.45 m/s, 301° | - | - |
* Rain latest hour (hover to see other rain measurements)
** Current wind speed in m/s (hover to see current wind gust speed)